BOX403 KLAX-KCVG

Flight info

Callsign BOX403
Flight time N/A
Altitude 35000
Route DOTSS2 CLEEE PKE J134 LANCY INW GUP KA36U KK42A KK45G FAM TERGE SARGO5
Aircraft B77L/H-SDE1E2E3FGHIJ2J3J4J5M1RWXY/LB1D1

Departure

Time 2026-04-24 09:47
Airport Los Angeles International Airport (KLAX)

Arrival

Time N/A
Airport Cincinnati Northern Kentucky International Airport (KCVG)
Time Latitude Longitude Altitude Speed Heading
2026-04-24 09:39 33.93484 -118.38092 98 ft 3 kts 91°
2026-04-24 09:39 33.93480 -118.38119 96 ft 4 kts 41°
2026-04-24 09:39 33.93459 -118.38127 96 ft 4 kts 360°
2026-04-24 09:39 33.93435 -118.38127 99 ft 1 kts 360°
2026-04-24 09:44 33.93450 -118.38127 96 ft 8 kts 360°
2026-04-24 09:44 33.93559 -118.38128 98 ft 21 kts 360°
2026-04-24 09:44 33.93617 -118.38171 101 ft 9 kts 287°
2026-04-24 09:44 33.93617 -118.38253 98 ft 12 kts 268°
2026-04-24 09:45 33.93650 -118.38284 101 ft 9 kts 360°
2026-04-24 09:45 33.93748 -118.38285 103 ft 19 kts 360°
2026-04-24 09:45 33.93893 -118.38311 103 ft 18 kts 351°
2026-04-24 09:45 33.93942 -118.38429 105 ft 18 kts 263°
2026-04-24 09:46 33.93916 -118.38692 101 ft 61 kts 263°
2026-04-24 09:46 33.93836 -118.39466 102 ft 123 kts 263°
2026-04-24 09:46 33.93710 -118.40695 102 ft 170 kts 263°
2026-04-24 09:46 33.93561 -118.42158 457 ft 176 kts 263°
2026-04-24 09:47 33.93401 -118.43645 895 ft 182 kts 263°
2026-04-24 09:47 33.93246 -118.45182 1365 ft 186 kts 260°
2026-04-24 09:47 33.92732 -118.46586 1727 ft 187 kts 228°
2026-04-24 09:47 33.91854 -118.47852 1896 ft 208 kts 230°
2026-04-24 09:48 33.90908 -118.49291 2101 ft 231 kts 230°
2026-04-24 09:48 33.89820 -118.50862 2364 ft 253 kts 229°
2026-04-24 09:48 33.88666 -118.52503 2968 ft 260 kts 229°
2026-04-24 09:48 33.87491 -118.54175 3757 ft 261 kts 230°
2026-04-24 09:49 33.86119 -118.55592 4355 ft 266 kts 205°
2026-04-24 09:49 33.84322 -118.55996 5027 ft 271 kts 176°
2026-04-24 09:49 33.82469 -118.55576 5661 ft 274 kts 168°
2026-04-24 09:49 33.80600 -118.55057 6348 ft 277 kts 168°
2026-04-24 09:50 33.78721 -118.54533 7055 ft 278 kts 168°
2026-04-24 09:50 33.76822 -118.54009 7702 ft 282 kts 169°
2026-04-24 09:50 33.74891 -118.53483 8345 ft 286 kts 170°
2026-04-24 09:50 33.72937 -118.52954 8993 ft 290 kts 170°
2026-04-24 09:51 33.70987 -118.52278 9547 ft 297 kts 155°
2026-04-24 09:51 33.69400 -118.50637 10043 ft 311 kts 124°
2026-04-24 09:51 33.68485 -118.48242 10380 ft 325 kts 111°
2026-04-24 09:51 33.67725 -118.45587 10534 ft 348 kts 110°
2026-04-24 09:52 33.66926 -118.42745 10706 ft 370 kts 110°
2026-04-24 09:52 33.66059 -118.39734 10934 ft 390 kts 110°
2026-04-24 09:52 33.65142 -118.36622 11463 ft 401 kts 111°
2026-04-24 09:52 33.64363 -118.33447 11918 ft 407 kts 99°
2026-04-24 09:53 33.64256 -118.30028 12390 ft 414 kts 89°
2026-04-24 09:53 33.64324 -118.26551 13152 ft 419 kts 89°
2026-04-24 09:53 33.64388 -118.23048 13963 ft 422 kts 89°
2026-04-24 09:53 33.64433 -118.19501 14659 ft 427 kts 89°